[[{"header":{"parameterUnit":"m.s-1","parameterCategory":1,"la1":30.2991,"la2":30.254,"lo1":-89.0895,"lo2":-89.0444,"dy":0.0017,"dx":0.0017,"nx":28,"ny":28,"refTime":"2024-09-28T09:00:00:Z","depth":0,"parameterNumber":2,"parameterNumberName":"U-component_of_WINDS"},"data":[0,0,0,0,0,0,0,0,0,0,0,0,0,0,0,0,0,0,0,0,0,0,0,0,0,0,0,0,0,0,0,0,0,0,0,0,0,0,0,0,0,0,0,0,0,0,0,0,0,0,0,0,0,0,0,0,0,0,3.6636,3.6636,0,3.6659,3.6659,3.6659,3.6653,3.6652,3.6652,3.6651,3.6676,3.6677,3.6678,0,0,0,0,0,0,0,0,0,0,0,0,0,3.6587,3.6588,3.6635,3.6636,3.6636,3.6659,3.6659,3.6659,3.6653,3.6652,3.6651,3.6651,3.6676,3.6677,3.6679,0,0,0,0,0,0,0,0,0,0,0,0,0,3.6609,3.6589,3.6635,3.6635,3.6636,3.6659,3.6659,3.6659,3.6653,3.6652,3.6651,3.6651,3.6676,3.6677,3.6679,3.6703,0,0,3.6684,3.6685,0,0,0,0,0,0,0,0,3.6608,3.6611,3.6635,3.6636,3.6636,3.6652,3.6651,3.6674,3.6653,3.6646,3.6651,3.665,3.6669,3.6671,3.6677,3.6705,3.6706,3.6684,3.6685,3.6686,3.6686,0,0,0,0,0,0,0,3.6607,3.661,3.6645,3.6636,3.6636,3.6635,3.6637,3.6656,3.6661,3.6647,3.6646,3.6649,3.6669,3.6675,3.6678,3.6706,3.6684,3.6685,3.6687,3.6687,3.6756,3.6757,0,0,0,0,0,0,3.6605,3.6609,3.6644,3.6645,3.662,3.6636,3.6639,3.6648,3.6661,3.6663,3.665,3.6649,3.6673,3.6676,3.6678,3.6708,3.6686,3.6687,3.6688,3.6755,3.6756,3.6757,0,0,0,0,0,0,3.6604,3.6608,3.6643,3.6627,3.6631,3.6638,3.6648,3.6648,3.6655,3.6663,3.6665,3.6655,3.6672,3.6676,3.6697,3.6709,3.6688,3.669,3.6754,3.6755,3.6757,3.6768,0,0,0,0,0,0,3.6602,3.6607,3.6616,3.6627,3.6632,3.6661,3.6648,3.6649,3.6658,3.6656,3.6669,3.667,3.6672,3.6695,3.6699,3.6711,3.6691,3.6753,3.6755,3.6756,3.6767,3.6769,3.6772,0,0,0,0,0,3.6601,3.6619,3.6617,3.6621,3.6643,3.6661,3.6664,3.6666,3.6658,3.6668,3.6673,3.667,3.6707,3.6697,3.6702,3.6714,3.6752,3.6754,3.6756,3.6765,3.6769,3.6772,0,0,0,0,0,0,3.6609,3.662,3.6618,3.664,3.665,3.666,3.6672,3.667,3.6682,3.6681,3.6683,3.6686,3.6707,3.6713,3.6701,3.6739,3.6729,3.6732,3.6734,3.6738,3.674,3.6738,3.6692,0,0,0,0,0,3.6614,3.6627,3.6636,3.6655,3.666,3.6665,3.6673,3.6674,3.6684,3.6688,3.6695,3.6706,3.672,3.673,3.6743,3.6768,3.6771,3.6779,3.6782,3.6784,3.6786,3.68,3.6804,3.6763,3.6763,3.6763,0,0,3.6623,3.6631,3.6639,3.6657,3.6664,3.6679,3.6669,3.6684,3.6695,3.6691,3.6711,3.6717,3.6729,3.6752,3.6763,3.6758,3.6798,3.6786,3.6788,3.6789,3.6802,3.6806,3.681,3.6764,3.6764,3.6764,0,0,3.6647,3.6654,3.667,3.6678,3.669,3.6694,3.6698,3.6709,3.6713,3.6733,3.673,3.6744,3.6768,3.6777,3.6785,3.6814,3.6811,3.6818,3.6832,3.6845,3.6849,3.6852,3.6862,3.6865,3.6821,3.6821,3.6821,0,3.6657,3.6677,3.6679,3.6695,3.6703,3.67,3.6717,3.6725,3.6741,3.6747,3.6741,3.6772,3.678,3.6806,3.6813,3.6819,3.6824,3.6816,3.6848,3.6851,3.6854,3.6863,3.6867,3.6821,3.6821,3.6821,3.6821,0,3.6689,3.6704,3.6716,3.6731,3.6741,3.6757,3.6762,3.6772,3.6772,3.6777,3.6798,3.6808,3.6824,3.683,3.683,3.6856,3.6852,3.6847,3.6837,3.6858,3.6867,3.6871,3.6823,3.6822,3.6822,3.6822,0,0,3.6718,3.6734,3.6739,3.6746,3.6759,3.6771,3.6788,3.6803,3.6811,3.6823,3.6837,3.6859,3.6854,3.6863,3.6865,3.6877,3.6899,3.6871,3.6871,3.6875,3.6928,3.6931,3.6935,3.6898,3.6899,3.6899,3.6927,0,3.6743,3.6771,3.6774,3.68,3.6814,3.6812,3.6827,3.6837,3.6843,3.6856,3.6862,3.6877,3.687,3.6875,3.6887,3.6894,3.691,3.6892,3.6911,3.6912,3.6907,3.694,3.6943,3.6968,3.693,3.6931,3.6932,0,3.6775,3.6787,3.6814,3.6827,3.6833,3.6846,3.686,3.6873,3.6885,3.6888,3.6898,3.6898,3.6917,3.6906,3.6931,3.6919,3.6928,3.6933,3.6934,3.6935,3.6922,3.6942,3.6977,3.698,3.6937,3.6937,3.6936,0,3.6792,3.6816,3.6835,3.6842,3.6856,3.6866,3.6872,3.6884,3.6893,3.6906,3.6912,3.6928,3.6936,3.6948,3.6953,3.6945,3.6978,3.6968,3.6981,3.6981,3.6987,3.6986,3.7023,3.6994,3.6994,3.6994,3.6994,0,3.6819,3.6836,3.6844,3.6855,3.6875,3.6878,3.6897,3.6904,3.6914,3.6928,3.6928,3.6941,3.6947,3.6961,3.6965,3.6985,3.6989,3.6992,3.6993,3.6992,3.6991,3.6997,3.6995,3.6995,3.6995,3.6994,3.6994,0,3.6841,3.6847,3.6868,3.6881,3.6885,3.6898,3.6909,3.6921,3.6927,3.6944,3.6948,3.6957,3.6974,3.698,3.7001,3.7004,3.7027,3.7027,3.7023,3.7023,3.7035,3.7034,3.7076,3.7082,3.7049,3.705,3.705,0,3.6857,3.687,3.6885,3.6894,3.6901,3.6915,3.6925,3.6929,3.6939,3.6955,3.6965,3.6982,3.6995,3.7022,3.7031,3.7047,3.7046,3.706,3.7049,3.7047,3.7046,3.7045,3.7046,3.7062,3.7062,3.7063,3.7063,0,3.6885,3.6888,3.6901,3.6916,3.6928,3.694,3.6951,3.6959,3.6966,3.6977,3.6994,3.7004,3.7026,3.7042,3.7059,3.7067,3.7066,3.7067,3.707,3.7069,3.7066,3.7067,3.7028,3.7065,3.7065,3.7065,3.7065,3.7065,3.6905,3.6916,3.6928,3.6943,3.6953,3.6964,3.6976,3.6983,3.6997,3.7015,3.7017,3.7035,3.7048,3.707,3.7079,3.7094,3.709,3.7096,3.7097,3.7098,3.7099,3.7064,3.7097,3.7097,3.7097,3.7097,3.7097,0,3.6932,3.694,3.6954,3.6971,3.6983,3.6982,3.6995,3.7005,3.7021,3.7033,3.7047,3.7067,3.7083,3.7094,3.711,3.712,3.7121,3.7125,3.7123,3.7125,3.7101,3.7096,3.7124,3.7124,3.7124,3.7124,3.7124,3.7124,3.6948,3.6967,3.6972,3.6996,3.7004,3.7022,3.703,3.704,3.705,3.7072,3.7086,3.7092,3.7104,3.7122,3.7137,3.714,3.7146,3.715,3.7152,3.713,3.7127,3.7124,3.7119,3.7151,3.7151,3.7175,3.7175,3.7175]},{"header":{"parameterUnit":"m.s-1","parameterCategory":1,"la1":30.2991,"la2":30.254,"lo1":-89.0895,"lo2":-89.0444,"dy":0.0017,"dx":0.0017,"nx":28,"ny":28,"refTime":"2024-09-28T09:00:00:Z","depth":0,"parameterNumber":3,"parameterNumberName":"V-component_of_WINDS"},"data":[0,0,0,0,0,0,0,0,0,0,0,0,0,0,0,0,0,0,0,0,0,0,0,0,0,0,0,0,0,0,0,0,0,0,0,0,0,0,0,0,0,0,0,0,0,0,0,0,0,0,0,0,0,0,0,0,0,0,2.7787,2.7788,0,2.7818,2.7818,2.7819,2.7836,2.7836,2.7836,2.7836,2.7866,2.7866,2.7867,0,0,0,0,0,0,0,0,0,0,0,0,0,2.774,2.7741,2.7787,2.7788,2.7788,2.7818,2.7818,2.7819,2.7836,2.7836,2.7836,2.7836,2.7865,2.7866,2.7867,0,0,0,0,0,0,0,0,0,0,0,0,0,2.7764,2.7741,2.7787,2.78,2.7802,2.7818,2.7818,2.7819,2.7836,2.7836,2.7836,2.7836,2.7865,2.7866,2.7867,2.7872,0,0,2.787,2.7871,0,0,0,0,0,0,0,0,2.7763,2.7766,2.7798,2.7799,2.7801,2.7823,2.7812,2.7837,2.7836,2.7823,2.7836,2.7836,2.7851,2.7853,2.7859,2.7873,2.7875,2.7871,2.7871,2.7872,2.7872,0,0,0,0,0,0,0,2.7761,2.7765,2.7799,2.7798,2.78,2.7803,2.7807,2.7817,2.7836,2.7824,2.7825,2.7829,2.7852,2.7858,2.786,2.7875,2.787,2.7871,2.7872,2.7873,2.7893,2.7893,0,0,0,0,0,0,2.7758,2.7763,2.7798,2.78,2.7782,2.7804,2.7808,2.7816,2.7836,2.7839,2.7829,2.783,2.7856,2.7859,2.7861,2.7867,2.7872,2.7873,2.7873,2.7893,2.7893,2.7893,0,0,0,0,0,0,2.7757,2.7761,2.7797,2.7782,2.7787,2.7805,2.7814,2.7817,2.7823,2.784,2.7843,2.7832,2.7856,2.7859,2.7869,2.7868,2.7873,2.7874,2.7893,2.7893,2.7893,2.7879,0,0,0,0,0,0,2.7755,2.776,2.7763,2.7782,2.7788,2.7806,2.7814,2.7817,2.7825,2.7826,2.7843,2.7846,2.7857,2.7867,2.787,2.787,2.7875,2.7893,2.7893,2.7893,2.788,2.7879,2.7878,0,0,0,0,0,2.7754,2.7758,2.7763,2.7768,2.7792,2.7806,2.7809,2.7821,2.7825,2.7827,2.7838,2.7845,2.7868,2.7868,2.7871,2.7871,2.7893,2.7893,2.7893,2.788,2.7879,2.7878,0,0,0,0,0,0,2.7738,2.7761,2.7767,2.7778,2.779,2.7808,2.7812,2.782,2.783,2.7831,2.7845,2.7849,2.7857,2.7865,2.7865,2.7876,2.7881,2.7882,2.7871,2.7869,2.7868,2.7866,2.7876,0,0,0,0,0,2.7736,2.7746,2.7765,2.7773,2.7779,2.7794,2.7801,2.7809,2.7822,2.7827,2.7838,2.7849,2.7858,2.7864,2.7874,2.7881,2.7884,2.7882,2.7881,2.788,2.788,2.7883,2.7882,2.7892,2.7892,2.7892,0,0,2.7732,2.7746,2.7751,2.777,2.778,2.7789,2.7798,2.7808,2.7814,2.7828,2.7837,2.7846,2.7859,2.7867,2.7871,2.7874,2.7878,2.788,2.7879,2.788,2.7883,2.7882,2.7881,2.7892,2.7892,2.7892,0,0,2.7729,2.7741,2.7748,2.7758,2.7773,2.7783,2.7785,2.7802,2.7808,2.7818,2.7828,2.7836,2.7852,2.786,2.7867,2.7865,2.7872,2.7868,2.7862,2.7864,2.7864,2.7863,2.7861,2.7861,2.7868,2.7868,2.7868,0,2.7722,2.7737,2.7751,2.7759,2.7767,2.778,2.7786,2.7795,2.7812,2.7816,2.7819,2.7839,2.7849,2.7858,2.7857,2.7863,2.7864,2.7866,2.7863,2.7862,2.7862,2.786,2.786,2.7867,2.7867,2.7867,2.7867,0,2.7727,2.7737,2.774,2.7757,2.7765,2.7772,2.7786,2.7792,2.7799,2.7808,2.7817,2.7829,2.7841,2.7844,2.7851,2.7854,2.7855,2.786,2.7866,2.786,2.7859,2.7859,2.7866,2.7866,2.7866,2.7867,0,0,2.7716,2.7739,2.774,2.7747,2.7764,2.7772,2.7779,2.779,2.7795,2.7805,2.7811,2.7824,2.7828,2.7836,2.7844,2.7846,2.7842,2.7851,2.7851,2.7848,2.7844,2.784,2.7839,2.7847,2.7847,2.7847,2.7843,0,2.7715,2.773,2.7742,2.7751,2.7759,2.7771,2.7777,2.7787,2.7795,2.7803,2.7811,2.782,2.7826,2.783,2.7833,2.7842,2.7842,2.7843,2.7851,2.7852,2.7847,2.7839,2.7835,2.783,2.7843,2.7843,2.7843,0,2.7717,2.7727,2.7737,2.7752,2.7756,2.7761,2.7772,2.7779,2.779,2.7796,2.7803,2.7812,2.7818,2.7823,2.7831,2.7832,2.7836,2.7841,2.7841,2.7842,2.7847,2.7839,2.7829,2.7828,2.7842,2.7842,2.7842,0,2.7707,2.7723,2.7731,2.7737,2.7754,2.7757,2.7765,2.7776,2.7782,2.7791,2.7794,2.7804,2.7809,2.7816,2.7826,2.7828,2.7833,2.7839,2.7837,2.7837,2.7837,2.7837,2.7828,2.7841,2.7841,2.7841,2.7841,0,2.7705,2.771,2.7727,2.7732,2.7738,2.775,2.7756,2.7764,2.7773,2.7779,2.7789,2.7794,2.7808,2.7814,2.7821,2.7827,2.7829,2.7833,2.7835,2.7832,2.7831,2.7835,2.7835,2.784,2.7841,2.7841,2.7841,0,2.7695,2.7707,2.7716,2.7731,2.7735,2.7739,2.7751,2.7755,2.7764,2.7771,2.7773,2.7786,2.7793,2.7804,2.7815,2.782,2.7824,2.7827,2.782,2.7821,2.7819,2.7819,2.7811,2.781,2.7824,2.7824,2.7824,0,2.7693,2.7697,2.7712,2.7717,2.7724,2.7731,2.7737,2.7749,2.7754,2.7766,2.7769,2.7777,2.7784,2.7796,2.7805,2.7813,2.7817,2.7813,2.7818,2.7814,2.7816,2.7815,2.7815,2.7812,2.7812,2.7812,2.7812,0,2.7687,2.7692,2.77,2.771,2.7716,2.7724,2.7733,2.7736,2.7749,2.7754,2.7762,2.7768,2.7779,2.7786,2.7795,2.7802,2.7808,2.781,2.781,2.7807,2.7802,2.7804,2.7817,2.781,2.781,2.781,2.7811,2.7811,2.7681,2.7684,2.7695,2.7704,2.7711,2.7718,2.7723,2.7731,2.7738,2.7748,2.7754,2.7761,2.777,2.7783,2.7789,2.7794,2.7797,2.7797,2.7797,2.7797,2.7795,2.7801,2.7796,2.7796,2.7796,2.7796,2.7796,0,2.7675,2.7682,2.7689,2.77,2.7706,2.7712,2.7722,2.7726,2.7732,2.774,2.7747,2.7755,2.7762,2.7772,2.778,2.7782,2.7785,2.7783,2.7783,2.7784,2.7793,2.7792,2.778,2.778,2.778,2.778,2.778,2.778,2.7672,2.7679,2.7685,2.7694,2.7701,2.7709,2.7713,2.7719,2.7726,2.7734,2.774,2.7747,2.7755,2.7763,2.7769,2.7772,2.7774,2.7771,2.7774,2.7782,2.7784,2.7785,2.7784,2.7771,2.7771,2.7765,2.7765,2.7765]}]]